Le nostre stazioni meteo in Italia

Pubblicità
Il mio iltempo24.it
Passo Rolle, Italia (16021): Temperatura & dewpoint: 03.04.2020 19:00:00 - 09.04.2020 19:00:00 (CEST)Passo Rolle, Italia (16021): velocità del vento: 03.04.2020 19:00:00 - 09.04.2020 19:00:00 (CEST)Passo Rolle, Italia (16021): direzione del vento: 03.04.2020 19:00:00 - 09.04.2020 19:00:00 (CEST)Passo Rolle, Italia (16021): visibility: 03.04.2020 19:00:00 - 09.04.2020 19:00:00 (CEST)
Data & Tempo tt [°C] td [°C] ff [km/h] ff [kn] dd vv [km]
09.04.2020 19:00:00 - - - - - -
09.04.2020 18:00:00 8,0 -6,0 13 7 SSE 10
09.04.2020 17:00:00 7,6 -8,9 9 5 SSE 50
09.04.2020 16:00:00 6,0 -8,0 8 4 NE 10
09.04.2020 15:00:00 6,0 -8,0 9 5 NNE 10
09.04.2020 14:00:00 6,2 -7,4 11 6 NNE 10
09.04.2020 13:00:00 7,0 -7,0 11 6 NE 10
09.04.2020 12:00:00 5,0 -6,0 11 6 NNE 10
09.04.2020 11:00:00 4,4 -5,1 11 6 NE 30
09.04.2020 10:00:00 3,0 -5,0 5 3 NNO 10
09.04.2020 09:00:00 2,0 -5,0 9 5 NNO 10
09.04.2020 08:00:00 0,2 -7,1 11 6 N 30
09.04.2020 07:00:00 0,0 -7,0 13 7 N 10
09.04.2020 06:00:00 1,0 -10,0 13 7 N 10
09.04.2020 05:00:00 1,0 -9,6 13 7 N 10
09.04.2020 04:00:00 - - - - - -
09.04.2020 03:00:00 - - - - - -
09.04.2020 02:00:00 1,4 -9,2 5 3 E 10
09.04.2020 01:00:00 - - - - - -
09.04.2020 00:00:00 - - - - - -
08.04.2020 23:00:00 1,4 -9,2 11 6 ESE 10
08.04.2020 22:00:00 - - - - - -
08.04.2020 21:00:00 - - - - - -
08.04.2020 20:00:00 4,6 -7,8 18 10 SE 30
08.04.2020 19:00:00 7,0 -7,0 16 9 SE 10
08.04.2020 18:00:00 7,0 -6,0 15 8 SE 10
08.04.2020 17:00:00 6,4 -5,6 11 6 SSE 30
08.04.2020 16:00:00 6,0 -6,0 13 7 SSE 10
08.04.2020 15:00:00 6,0 -6,0 13 7 SSE 10
08.04.2020 14:00:00 6,0 -6,9 5 3 ESE 30
08.04.2020 13:00:00 5,0 -6,0 8 4 ESE 10
08.04.2020 12:00:00 5,0 -5,0 9 5 SE 10
08.04.2020 11:00:00 4,2 -5,0 5 3 ESE 30
08.04.2020 10:00:00 3,0 -3,0 5 3 E 10
08.04.2020 09:00:00 1,0 -4,0 2 1 - 10
08.04.2020 08:00:00 0,8 -4,4 0 0 N 30
08.04.2020 07:00:00 1,0 -4,0 5 3 N 10
08.04.2020 06:00:00 1,0 -4,0 5 3 N 10
08.04.2020 05:00:00 1,0 -3,9 9 5 N 10
08.04.2020 04:00:00 - - - - - -
08.04.2020 03:00:00 - - - - - -
08.04.2020 02:00:00 1,2 -4,6 8 4 ESE 10
08.04.2020 01:00:00 - - - - - -
08.04.2020 00:00:00 - - - - - -
07.04.2020 23:00:00 2,2 -3,5 13 7 ESE 10
07.04.2020 22:00:00 - - - - - -
07.04.2020 21:00:00 - - - - - -
07.04.2020 20:00:00 4,4 -4,6 15 8 SSE 30
07.04.2020 19:00:00 8,0 -4,0 13 7 ESE 10
07.04.2020 18:00:00 7,0 -5,0 15 8 SSE 10
07.04.2020 17:00:00 7,0 -6,7 8 4 SSE 30
07.04.2020 16:00:00 7,0 -9,0 5 3 NE 10
07.04.2020 15:00:00 6,0 -9,0 11 6 NNE 10
07.04.2020 14:00:00 6,2 -8,5 15 8 ENE 35
07.04.2020 13:00:00 6,0 -11,0 22 12 ENE 10
07.04.2020 12:00:00 5,0 -10,0 16 9 E 10
07.04.2020 11:00:00 4,8 -7,3 4 2 SE 35
07.04.2020 10:00:00 3,0 -3,0 13 7 NNE 10
07.04.2020 09:00:00 1,0 -4,0 11 6 N 10
07.04.2020 08:00:00 -0,2 -3,6 9 5 NNO 35
07.04.2020 07:00:00 0,0 -3,0 15 8 NNO 10
07.04.2020 06:00:00 0,0 -3,0 15 8 NO 10
07.04.2020 05:00:00 0,2 -3,5 13 7 NNO 12
07.04.2020 04:00:00 - - - - - -
07.04.2020 03:00:00 - - - - - -
07.04.2020 02:00:00 1,2 -4,1 15 8 N 12
07.04.2020 01:00:00 - - - - - -
07.04.2020 00:00:00 - - - - - -
06.04.2020 23:00:00 1,4 -4,3 9 5 ESE 12
06.04.2020 22:00:00 - - - - - -
06.04.2020 21:00:00 - - - - - -
06.04.2020 20:00:00 4,4 -5,4 8 4 ESE 25
06.04.2020 19:00:00 7,0 -4,0 13 7 SE 10
06.04.2020 18:00:00 6,0 -4,0 13 7 SSE 10
06.04.2020 17:00:00 6,2 -3,7 13 7 SSE 35
06.04.2020 16:00:00 6,0 -4,0 9 5 SSE 10
06.04.2020 15:00:00 5,0 -4,0 8 4 NE 10
06.04.2020 14:00:00 4,4 -4,3 11 6 NE 35
06.04.2020 13:00:00 3,0 -4,0 11 6 NE 10
06.04.2020 12:00:00 2,0 -4,0 5 3 ENE 10
06.04.2020 11:00:00 0,2 -5,0 8 4 E 35
06.04.2020 10:00:00 -1,0 -5,0 4 2 ENE 10
06.04.2020 09:00:00 -2,0 -6,0 0 0 N 10
06.04.2020 08:00:00 -2,2 -6,7 0 0 N 35
06.04.2020 07:00:00 -2,0 -6,0 5 3 E 10
06.04.2020 06:00:00 -2,0 -7,0 9 5 ESE 10
06.04.2020 05:00:00 -1,8 -6,9 8 4 ESE 12
06.04.2020 04:00:00 - - - - - -
06.04.2020 03:00:00 - - - - - -
06.04.2020 02:00:00 -0,6 -7,6 9 5 SE 12
06.04.2020 01:00:00 - - - - - -
06.04.2020 00:00:00 - - - - - -
05.04.2020 23:00:00 0,4 -7,1 13 7 ESE 12
05.04.2020 22:00:00 - - - - - -
05.04.2020 21:00:00 - - - - - -
05.04.2020 20:00:00 3,8 -7,9 8 4 ESE 25
05.04.2020 19:00:00 6,0 -7,0 11 6 SE 10
05.04.2020 18:00:00 5,0 -8,0 15 8 SSE 10
05.04.2020 17:00:00 5,4 -7,8 15 8 SE 35
05.04.2020 16:00:00 5,0 -9,0 13 7 SE 10
05.04.2020 15:00:00 4,0 -5,0 11 6 ESE 10
05.04.2020 14:00:00 3,0 -3,8 9 5 SE 50
05.04.2020 13:00:00 2,0 -4,0 5 3 SE 10
05.04.2020 12:00:00 1,0 -2,0 5 3 ESE 10
05.04.2020 11:00:00 -1,0 -4,3 8 4 SE 30
05.04.2020 10:00:00 -2,0 -3,0 4 2 ESE 10
05.04.2020 09:00:00 -2,0 -3,0 2 1 N 10
05.04.2020 08:00:00 -2,2 -2,7 8 4 NNO 20
05.04.2020 07:00:00 -2,0 -3,0 11 6 N 10
05.04.2020 06:00:00 -2,0 -4,0 9 5 NNO 10
05.04.2020 05:00:00 -2,0 -4,8 11 6 NNO 10
05.04.2020 04:00:00 - - - - - -
05.04.2020 03:00:00 - - - - - -
05.04.2020 02:00:00 -1,0 -2,9 4 2 NNE 10
05.04.2020 01:00:00 - - - - - -
05.04.2020 00:00:00 - - - - - -
04.04.2020 23:00:00 -0,4 -3,6 15 8 ESE 10
04.04.2020 22:00:00 - - - - - -
04.04.2020 21:00:00 - - - - - -
04.04.2020 20:00:00 4,2 -3,8 18 10 SE 30
04.04.2020 19:00:00 4,0 -4,0 16 9 SE 10
04.04.2020 18:00:00 4,0 -5,0 15 8 SE 10
04.04.2020 17:00:00 3,6 -6,4 11 6 SE 30
04.04.2020 16:00:00 2,0 -7,0 4 2 NE 10
04.04.2020 15:00:00 3,0 -5,0 5 3 E 10
04.04.2020 14:00:00 2,2 -5,4 5 3 NE 30
04.04.2020 13:00:00 2,0 -5,0 4 2 NNO 10
04.04.2020 12:00:00 3,0 -2,0 8 4 NNE 10
04.04.2020 11:00:00 0,6 -2,4 5 3 SE 30
04.04.2020 10:00:00 -2,0 -4,0 8 4 ESE 10
04.04.2020 09:00:00 -2,0 -5,0 13 7 ESE 10
04.04.2020 08:00:00 -2,0 -5,6 15 8 SE 30
04.04.2020 07:00:00 -2,0 -6,0 13 7 SE 10
04.04.2020 06:00:00 -2,0 -6,0 8 4 S 10
04.04.2020 05:00:00 -2,0 -6,7 4 2 SSE 10
04.04.2020 04:00:00 - - - - - -
04.04.2020 03:00:00 - - - - - -
04.04.2020 02:00:00 -2,2 -5,9 2 1 ONO 10
04.04.2020 01:00:00 - - - - - -
04.04.2020 00:00:00 - - - - - -
03.04.2020 23:00:00 -1,8 -5,1 5 3 E 10
03.04.2020 22:00:00 - - - - - -
03.04.2020 21:00:00 - - - - - -
03.04.2020 20:00:00 1,4 -4,9 16 9 SE 30
03.04.2020 19:00:00 2,0 -6,0 16 9 SE 10

tt = Temperatura
td = dewpoint
ff = velocità del vento
dd = direzione del vento
vv = visibility

Stazioni seguenti

WeatherPro
AMSI
MeteoEarth